OPS 4682 DEB, 38448

Orbit data source: Space-Track

OPS 4682 DEB, 38448 is space debris in LEO originally from a launch on Sat, 03 Apr 1965 UTC launched from the Air Force Western Test Range (AFWTR). Debris objects in space refer to the collection of defunct objects orbiting the Earth. Examples of debris include non-operational satellites, rocket bodies, and fragments generated from explosions, collisions, or faulty payload assembly.

Loading next visibility...
Identifier
38448, 1965-027FD
Orbit
LEO
Country
Flag of USUS
Related business
Manufacturer
Unknown
Mission
Spacecraft
Bus & Motor
Unknown
Mass
Unknown
Launch date (UTC)
1965-04-03 (61 years ago)
Launch vehicle
Unknown
Launch site
Air Force Western Test Range (AFWTR)
Object type
Payload
Rocket body
Debris
Shape & HBR
Unknown shape, 0.1 m
Radar Cross Section
Medium (>0.1 m² and <1 m²)

Expand to show TLE details & history
Last TLE update: 3 days ago

TLE from 3 days ago
0 OPS 4682 DEB
1 38448U 65027FD  26173.28700261  .00000767  00000-0  25081-2 0  9990
2 38448  90.2378   6.8094 0028119 225.8475 134.0335 13.00334908555026
Epoch: 2026-06-22T06:53Z
TLE epoch observation values (Epoch: 2026-06-22T06:53:17.025Z)
Latitude
-0.00006°
Longitude
-6.98663°
Altitude
1,278.623 km
Speed
7.209 km/s
True Right ascension
00h 27m 14s
True Declination
0° 00' 00"
Sunlit
Object was in daylight at epoch
Visualization orbit readout
Latitude
Unknown
Longitude
Unknown
Altitude
Unknown
Speed
Unknown
Apparent Right ascension
Unknown
Apparent Declination
Unknown
Sunlit
N/A
Visualization observer readout
Local Sidereal Time
06:16:48
Azimuth
Unknown
Elevation
Unknown
Doppler factor
Unknown
Orbital elements
Apogee altitude
1,279.373 km
Perigee altitude
1,236.429 km
Semi-major axis
7,636.038 km
Eccentricity
0.00281
Inclination
90.2378°
RAAN
6.8094°
Arg. of periapsis
225.8475°
True anomaly
134.26459°
Mean anomaly
134.0335°
Eccentric anomaly
134.1491°
Mean motion
3.25268 °/min
Orbital period
110.68 mins
BSTAR
0.0025081
Loading maneuver chart data...
Computing Atmospheric mass density...
Loading historical data...
Loading historical data...
Loading historical data...
Loading historical data...
Loading historical data...
Loading historical data...
Loading historical data...

Documentation

Showing up to 5 results
|